Temp
59 59 59 58 58 59 59 59 59 59 59 59 59 59 59 59 58 51 46 55 58 64 63 57 56 54 53 48 48 44 36 33 39 43 50 51 49 51 52 53 50 54 51 52 54
59 58 58 58 58 59 59 59 59 59 59 59 59 59 59 59 49 45 56 62 64 65 56 52 49 52 45 46 46 42 36 41 47 52 49 52 51 53 49 49 50 49 50 51 57
58 58 58 58 58 58 59 58 58 58 58 58 58 58 59 55 41 46 65 65 64 63 57 55 53 50 42 44 43 42 42 47 48 54 51 51 49 50 49 45 53 54 51 51 55
58 57 57 57 58 58 58 58 58 58 58 58 58 58 58 49 33 52 62 62 60 59 55 54 50 45 39 39 45 38 43 49 49 51 50 47 50 48 51 55 54 55 53 51 55
57 57 57 57 57 58 58 58 58 57 57 57 58 58 51 39 39 56 60 56 54 53 50 49 47 44 41 40 42 40 42 46 50 52 49 49 47 48 47 54 52 51 51 51 52
57 57 56 57 57 57 57 57 57 57 57 57 58 57 42 31 52 54 53 52 51 49 46 46 45 48 42 40 40 42 43 46 48 46 46 47 48 45 47 54 50 51 50 50 52
56 56 56 56 56 57 57 57 57 57 57 57 58 53 41 38 51 53 53 50 49 46 42 46 48 43 42 38 45 43 38 43 45 43 44 44 42 42 50 54 52 49 50 50 51
56 56 56 56 56 56 56 56 57 56 56 57 57 45 34 50 49 48 51 47 53 52 48 49 48 44 42 45 41 35 33 30 42 44 43 45 36 49 53 51 51 49 52 50 52
55 55 55 55 56 55 56 56 55 55 56 55 42 37 32 52 44 48 48 44 45 46 45 51 45 40 42 35 32 36 28 30 34 43 42 42 38 46 51 52 52 56 55 53 52
55 55 55 55 55 55 55 55 54 52 49 50 47 33 39 38 45 47 49 46 40 39 38 39 39 34 35 33 23 28 28 31 31 37 40 38 39 46 48 50 50 53 55 52 54
55 55 55 55 55 55 51 39 36 33 37 31 33 33 36 42 45 42 44 41 38 34 25 30 24 23 31 35 36 35 32 30 35 40 39 37 39 44 46 47 50 52 48 46 49
55 55 54 54 55 55 41 34 35 39 28 38 37 37 40 41 32 38 44 32 31 26 30 24 19 29 34 35 33 33 31 30 36 39 37 36 35 39 42 44 48 49 48 44 44
54 54 54 54 54 43 36 37 43 39 28 31 36 35 36 38 31 33 38 35 29 25 25 21 24 33 31 29 27 30 29 31 29 33 38 33 32 35 38 41 44 46 49 51 47
54 54 53 53 45 37 36 42 42 40 15 23 32 35 38 38 31 40 40 35 29 22 27 23 30 28 24 24 27 24 35 33 33 30 23 33 21 33 39 40 42 47 49 49 46
53 53 53 53 41 35 39 42 41 34 2 29 32 43 41 33 35 35 42 34 25 26 26 21 24 24 21 24 32 23 30 31 30 28 26 27 23 30 38 35 38 44 48 50 48
52 53 53 44 37 39 41 39 33 7 -6 23 31 31 29 32 31 34 34 37 35 26 27 26 34 30 27 31 33 34 28 29 29 27 19 25 24 27 27 35 40 43 46 49 51
52 52 50 45 34 39 38 29 8 -1 22 17 24 28 27 24 26 25 22 19 21 15 11 23 25 31 32 24 26 30 24 18 17 17 17 30 25 29 31 41 43 44 45 47 46
52 51 44 42 39 38 31 16 -0 4 9 28 27 25 20 27 22 17 17 13 26 22 19 13 10 25 30 26 23 19 23 20 13 15 19 25 20 26 40 43 34 40 40 44 43
50 37 34 37 40 35 25 0 3 13 25 23 22 15 19 25 23 20 17 17 24 27 19 9 14 33 30 31 31 22 19 23 20 9 15 14 23 31 33 35 40 41 42 41 39
34 31 31 38 37 31 18 12 10 26 28 21 13 17 15 18 18 20 17 25 24 30 30 19 15 29 31 32 31 29 30 19 21 9 11 9 13 20 21 28 34 29 31 33 32
33 26 34 37 34 23 9 9 19 29 29 15 13 17 19 19 22 20 21 28 29 29 28 22 20 21 26 25 21 23 24 25 25 22 14 13 15 17 20 19 22 24 29 27 28
36 24 34 35 17 12 15 18 29 27 29 23 23 22 21 21 19 21 21 25 34 29 19 24 23 14 22 24 29 29 25 26 18 15 15 14 15 14 12 13 17 23 27 26 26
31 25 33 32 12 5 17 18 24 22 22 13 19 26 25 19 16 21 24 32 32 28 19 26 20 13 16 23 28 25 22 25 24 22 16 16 13 15 24 22 22 20 23 24 25
31 19 20 23 27 19 20 16 10 23 21 25 24 27 22 17 21 19 22 29 31 29 35 29 18 16 12 17 22 20 21 26 26 17 9 15 10 18 19 19 24 28 22 22 21
30 19 17 16 20 21 20 15 18 9 21 25 17 16 18 16 17 9 20 25 27 30 26 19 16 15 21 22 21 18 16 18 15 18 17 15 19 16 19 18 24 25 28 24 19
23 24 22 23 22 21 20 14 20 21 18 20 14 20 20 18 19 17 21 23 22 22 19 19 14 17 18 21 20 17 18 19 17 16 18 14 16 22 20 18 18 18 22 23 25
35 35 29 22 20 18 20 20 21 25 26 28 25 22 19 21 25 28 28 26 26 23 22 20 15 14 12 15 19 13 15 17 17 18 17 13 18 21 20 19 17 18 18 19 21
MSLP
1023.74 1023.34 1023.05 1022.69 1022.11 1021.60 1021.12 1020.67 1020.27 1019.73 1019.15 1018.47 1017.85 1017.24 1016.74 1016.12 1015.43 1015.12 1014.06 1011.86 1011.52 1011.33 1011.80 1011.83 1011.89 1011.69 1012.04 1012.11 1012.12 1012.38 1012.55 1011.21 1010.25 1009.69 1007.96 1007.41 1007.55 1007.01 1006.68 1006.81 1007.02 1007.10 1007.34 1007.47 1007.29
1023.83 1023.51 1023.22 1022.81 1022.17 1021.60 1021.12 1020.61 1020.18 1019.65 1019.08 1018.55 1017.96 1017.31 1016.67 1015.99 1015.50 1014.11 1011.78 1011.42 1011.29 1011.45 1011.91 1011.94 1011.99 1012.04 1012.05 1011.82 1011.81 1012.14 1010.74 1009.55 1008.92 1008.31 1007.44 1007.17 1007.19 1006.67 1006.89 1006.87 1006.81 1006.95 1007.20 1007.81 1008.09
1023.87 1023.67 1023.26 1022.77 1022.16 1021.74 1021.14 1020.60 1020.26 1019.62 1018.93 1018.31 1017.75 1017.13 1016.45 1015.86 1015.18 1012.50 1011.55 1011.24 1011.46 1011.42 1011.64 1011.88 1012.05 1012.14 1012.14 1011.66 1011.25 1010.62 1008.98 1008.65 1007.99 1007.69 1007.40 1007.21 1007.08 1006.89 1006.73 1006.90 1006.35 1006.40 1007.02 1007.94 1008.61
1023.99 1023.69 1023.25 1022.76 1022.17 1021.53 1020.99 1020.51 1020.03 1019.46 1018.86 1018.09 1017.56 1016.97 1016.39 1016.46 1015.29 1011.92 1011.62 1011.88 1012.07 1011.57 1011.59 1011.59 1011.61 1011.91 1011.83 1011.38 1010.71 1010.15 1008.87 1008.67 1008.02 1007.55 1007.30 1007.15 1006.80 1006.60 1006.61 1005.91 1005.67 1006.07 1006.78 1007.58 1008.26
1024.07 1023.67 1023.23 1022.70 1022.03 1021.36 1020.71 1020.22 1019.76 1019.20 1018.58 1017.95 1017.35 1016.85 1016.37 1015.99 1013.38 1012.34 1012.04 1012.10 1012.11 1011.99 1011.92 1011.85 1011.68 1011.67 1011.08 1010.80 1010.65 1009.59 1008.79 1008.41 1007.92 1007.67 1007.18 1007.34 1006.69 1006.50 1006.13 1005.79 1005.99 1006.39 1006.81 1007.18 1007.48
1024.05 1023.72 1023.28 1022.73 1022.04 1021.35 1020.77 1020.16 1019.64 1018.94 1018.16 1017.54 1016.94 1016.52 1016.58 1015.01 1012.58 1012.13 1012.25 1012.19 1012.40 1012.36 1012.21 1012.47 1011.80 1011.38 1010.85 1010.43 1010.32 1008.91 1008.64 1008.19 1007.85 1007.41 1007.20 1007.28 1006.85 1006.87 1005.61 1005.79 1005.92 1006.27 1006.69 1006.96 1007.02
1024.06 1023.67 1023.23 1022.62 1021.96 1021.34 1020.71 1020.04 1019.18 1018.43 1017.69 1016.91 1016.33 1015.98 1015.57 1012.74 1012.31 1011.86 1011.94 1012.26 1012.29 1012.37 1012.33 1012.15 1011.82 1011.63 1010.32 1010.12 1009.44 1008.99 1008.88 1008.18 1007.43 1007.31 1007.07 1007.20 1006.09 1004.63 1005.51 1005.72 1005.70 1005.93 1006.16 1006.44 1006.49
1024.02 1023.63 1023.21 1022.61 1021.84 1021.14 1020.45 1019.64 1018.82 1018.05 1017.04 1016.20 1015.62 1015.53 1014.33 1012.32 1011.84 1011.95 1012.09 1012.13 1012.02 1011.65 1011.73 1011.34 1011.25 1010.87 1010.39 1009.95 1009.18 1008.99 1008.55 1007.77 1006.12 1007.05 1006.92 1007.16 1002.52 1003.85 1004.59 1005.16 1005.19 1005.21 1005.41 1005.72 1005.77
1024.01 1023.59 1023.03 1022.31 1021.61 1020.89 1020.15 1019.20 1018.33 1017.30 1016.39 1015.96 1015.59 1015.54 1013.76 1012.18 1011.98 1012.15 1012.09 1012.26 1011.87 1011.41 1011.35 1011.23 1010.99 1010.17 1009.81 1009.38 1009.07 1008.52 1007.40 1006.64 1006.39 1006.09 1006.51 1006.10 1002.74 1003.69 1003.67 1004.10 1003.99 1003.93 1004.23 1004.69 1005.02
1024.05 1023.49 1022.82 1022.21 1021.56 1020.74 1019.82 1018.93 1017.65 1016.85 1016.76 1016.05 1015.48 1015.98 1013.74 1012.81 1012.52 1012.51 1012.07 1012.23 1012.18 1011.78 1011.19 1010.68 1010.55 1009.87 1009.22 1008.51 1006.75 1006.59 1006.51 1005.94 1005.67 1005.73 1005.70 1005.43 1002.67 1003.71 1003.41 1003.43 1003.14 1002.99 1003.12 1003.47 1003.83
1023.74 1023.19 1022.61 1022.02 1021.18 1020.40 1019.59 1018.93 1018.38 1017.87 1017.85 1018.13 1016.00 1015.91 1014.17 1013.41 1013.17 1011.76 1012.14 1012.31 1012.24 1012.22 1011.93 1011.31 1010.70 1009.04 1007.44 1006.60 1006.63 1006.44 1006.29 1005.57 1005.24 1005.47 1005.14 1004.57 1002.83 1003.51 1003.54 1003.13 1002.73 1002.65 1002.97 1003.20 1003.20
1023.66 1023.03 1022.48 1021.72 1020.93 1020.22 1020.43 1020.56 1020.46 1020.05 1017.26 1016.71 1015.07 1014.73 1014.02 1014.11 1013.63 1011.41 1011.78 1012.40 1012.15 1011.99 1011.64 1011.53 1009.97 1008.02 1008.70 1007.98 1006.98 1006.42 1006.02 1005.37 1005.21 1005.27 1005.09 1004.37 1002.97 1003.54 1003.35 1002.57 1002.38 1002.39 1002.35 1002.65 1003.02
1023.47 1022.87 1022.16 1021.49 1020.65 1020.48 1020.83 1020.45 1020.01 1020.02 1018.76 1015.65 1014.35 1013.74 1013.20 1013.44 1012.92 1011.53 1011.54 1011.31 1011.40 1011.49 1010.97 1010.72 1009.17 1008.72 1008.45 1007.76 1007.47 1005.64 1004.88 1004.95 1004.93 1004.96 1004.60 1004.57 1003.02 1003.42 1003.05 1002.64 1002.13 1001.85 1001.58 1001.70 1002.00
1023.37 1022.80 1022.15 1021.31 1020.66 1020.83 1020.58 1020.16 1019.97 1019.90 1019.03 1015.90 1014.26 1013.13 1012.94 1012.97 1011.97 1010.85 1010.58 1010.79 1010.71 1010.45 1009.81 1009.59 1008.01 1007.82 1007.51 1006.95 1006.94 1005.24 1004.88 1004.81 1004.85 1005.49 1004.11 1004.46 1002.62 1002.62 1002.15 1001.94 1002.03 1001.12 1001.19 1001.03 1001.34
1023.14 1022.59 1021.93 1021.29 1021.53 1021.24 1020.64 1020.10 1019.89 1020.10 1019.48 1015.61 1014.03 1012.75 1012.47 1013.25 1012.36 1009.17 1009.81 1009.92 1009.68 1009.55 1009.91 1008.03 1007.06 1006.84 1006.79 1005.52 1005.82 1005.85 1005.83 1005.37 1004.76 1004.53 1004.54 1004.24 1003.71 1001.38 1001.76 1001.57 1001.27 1000.63 1000.31 1000.22 1000.38
1023.01 1022.18 1021.43 1021.15 1021.51 1020.88 1020.50 1020.24 1020.54 1021.65 1019.70 1016.33 1014.71 1013.52 1013.25 1011.19 1011.35 1010.36 1009.59 1009.39 1008.90 1008.55 1008.30 1007.05 1005.53 1005.94 1004.50 1004.21 1004.74 1004.38 1005.89 1005.42 1004.80 1004.72 1002.96 1002.87 1003.60 1000.57 1001.03 1000.60 1000.35 1000.04 999.54 999.22 999.34
1022.72 1021.93 1021.29 1021.26 1021.14 1020.68 1020.54 1021.19 1022.11 1022.03 1019.35 1017.27 1015.51 1014.69 1013.78 1012.49 1011.13 1010.69 1010.00 1009.48 1009.15 1008.54 1007.51 1005.88 1004.50 1003.30 1003.87 1003.90 1003.68 1003.75 1004.73 1004.37 1003.27 1002.71 1001.15 1001.29 1002.31 1000.69 999.76 999.59 999.16 998.79 998.75 998.68 998.86
1022.48 1021.75 1021.06 1021.11 1020.96 1020.73 1021.23 1022.66 1023.25 1021.84 1020.22 1018.34 1016.58 1014.46 1014.39 1012.51 1011.60 1011.43 1010.52 1009.26 1008.16 1008.00 1007.17 1005.98 1004.02 1003.14 1002.95 1002.72 1002.73 1002.97 1003.34 1002.22 1002.11 1001.41 1001.39 1001.32 1000.60 999.72 998.83 998.96 998.89 998.39 998.44 998.48 998.61
1022.42 1021.87 1021.45 1021.09 1020.85 1021.07 1022.13 1023.30 1022.90 1021.35 1019.84 1018.61 1017.27 1015.48 1013.37 1012.68 1012.86 1011.68 1010.37 1009.43 1008.39 1007.44 1007.01 1006.18 1004.32 1002.44 1002.28 1001.43 1002.07 1002.43 1002.64 1002.23 1002.15 1002.46 1001.85 1001.50 1001.03 1000.03 999.40 999.36 998.86 998.82 998.58 998.66 999.64
1022.97 1022.76 1021.87 1021.20 1021.10 1021.67 1022.79 1023.10 1022.13 1020.50 1019.69 1019.11 1018.43 1016.67 1014.82 1012.96 1012.58 1011.52 1010.42 1008.88 1008.40 1007.60 1007.11 1006.46 1004.59 1001.92 1001.17 1001.12 1001.24 1001.21 1001.75 1002.64 1002.77 1003.28 1002.20 1002.30 1002.14 1001.30 1000.99 1000.55 999.95 999.85 1000.02 1000.42 1000.64
1023.25 1022.94 1021.51 1021.26 1021.49 1022.43 1023.14 1022.97 1021.53 1019.70 1019.60 1019.19 1018.35 1016.95 1015.19 1013.90 1012.55 1011.51 1010.31 1008.74 1008.46 1007.48 1007.19 1006.42 1005.40 1002.78 1002.01 1000.95 1000.64 1001.47 1001.12 1001.95 1002.03 1002.49 1002.26 1003.34 1003.04 1002.84 1002.57 1001.96 1001.83 1001.46 1001.49 1001.68 1001.83
1022.93 1022.97 1021.68 1021.63 1022.64 1023.66 1023.42 1022.43 1021.17 1019.59 1019.00 1018.51 1017.65 1016.64 1015.38 1014.49 1013.07 1011.71 1010.51 1009.40 1008.49 1008.14 1007.35 1006.40 1005.08 1003.63 1001.72 1000.81 1000.40 1000.41 1000.29 1000.71 1001.24 1002.51 1003.50 1004.11 1004.03 1003.97 1004.40 1004.13 1003.88 1003.26 1003.32 1003.08 1002.93
1023.07 1022.68 1021.86 1021.79 1022.98 1023.51 1022.61 1022.04 1021.27 1019.97 1019.06 1018.46 1017.89 1016.64 1015.85 1015.04 1013.98 1011.99 1010.48 1009.13 1008.63 1008.54 1007.94 1006.94 1005.87 1004.58 1001.88 1001.24 1000.83 1000.83 1000.83 1000.78 1001.45 1002.31 1003.61 1004.50 1004.65 1004.95 1004.70 1004.56 1004.76 1004.69 1003.88 1003.81 1003.52
1023.47 1023.41 1022.74 1022.60 1022.82 1022.91 1022.58 1021.74 1021.02 1019.72 1019.05 1018.30 1017.44 1016.44 1015.81 1015.02 1013.88 1012.14 1010.61 1009.47 1008.92 1008.45 1007.83 1007.30 1006.97 1006.49 1005.48 1004.11 1003.43 1002.27 1001.69 1001.59 1001.78 1003.22 1004.12 1004.52 1005.34 1005.81 1005.87 1005.79 1005.45 1005.05 1004.87 1004.72 1004.61
1023.51 1023.74 1023.58 1023.23 1022.72 1022.77 1022.60 1021.68 1020.70 1019.89 1018.88 1018.11 1017.04 1016.57 1016.15 1014.72 1013.08 1011.64 1010.63 1009.52 1008.99 1008.20 1008.07 1008.13 1007.53 1006.56 1005.52 1004.56 1004.23 1003.91 1003.59 1003.33 1003.61 1004.36 1004.78 1005.29 1005.96 1007.08 1007.33 1007.12 1006.75 1006.33 1005.37 1004.84 1005.13
1023.68 1023.82 1023.25 1022.90 1022.48 1022.30 1021.91 1021.04 1020.21 1019.48 1019.01 1017.68 1017.11 1015.88 1015.43 1014.95 1013.95 1011.30 1010.67 1009.58 1009.21 1008.70 1008.60 1008.37 1007.98 1007.09 1005.62 1005.36 1005.08 1005.01 1005.10 1005.00 1005.20 1005.51 1006.03 1006.35 1006.80 1007.43 1007.71 1007.69 1007.50 1007.10 1006.45 1006.08 1005.81
1023.14 1023.17 1023.19 1022.36 1022.22 1022.18 1021.26 1020.57 1019.64 1019.09 1017.65 1016.95 1016.19 1015.32 1014.09 1012.89 1011.92 1010.71 1009.72 1008.75 1008.83 1008.64 1008.68 1008.70 1008.47 1007.75 1006.29 1005.34 1005.12 1005.89 1006.93 1006.91 1007.19 1007.54 1007.40 1007.44 1008.28 1008.03 1007.78 1008.01 1008.00 1007.61 1007.28 1006.99 1006.77
Wind_Speed
21 21 23 23 22 23 23 23 23 24 24 25 25 25 25 26 27 15 11 14 9 15 13 5 4 3 3 3 4 4 3 7 10 11 19 2 6 4 2 5 3 6 3 4 10
21 23 24 23 23 23 24 25 26 26 26 25 25 25 24 24 18 15 14 18 13 13 6 3 4 3 3 5 5 5 8 12 8 14 7 4 7 6 4 4 4 3 2 4 14
22 24 24 24 25 25 26 27 27 27 27 27 27 25 24 14 9 7 7 20 4 8 6 6 5 2 6 4 6 7 22 7 6 14 5 6 4 3 6 4 9 11 5 9 13
23 25 25 25 25 25 26 27 27 28 29 28 28 25 23 3 9 1 18 21 19 11 6 3 8 7 5 11 6 10 6 16 5 7 6 8 3 6 9 11 3 6 5 11 17
23 25 25 25 26 27 28 29 29 30 29 29 28 25 13 6 14 13 18 12 9 8 4 6 11 8 15 6 6 14 6 6 11 17 11 6 9 10 9 11 3 3 7 13 15
23 23 24 24 27 27 29 29 30 30 30 30 28 24 4 26 4 6 5 8 4 5 6 7 7 7 10 7 14 3 6 21 17 11 5 13 15 5 9 10 7 6 9 10 14
23 24 24 24 27 28 28 30 31 32 32 29 25 15 13 30 9 12 15 9 4 1 5 8 10 10 1 6 10 11 17 15 21 4 10 3 21 22 8 8 11 9 10 9 13
24 24 24 25 26 28 29 31 32 33 31 28 24 5 12 6 6 6 3 4 8 10 5 12 10 17 20 12 13 4 4 12 11 17 8 11 32 19 15 12 15 12 12 10 14
22 23 24 25 27 28 30 32 31 31 26 19 7 2 12 7 2 3 3 12 9 5 7 11 7 13 11 21 17 17 20 19 14 6 8 17 24 7 10 18 21 21 18 15 14
22 23 24 26 27 28 31 29 26 17 7 9 4 4 6 6 12 24 21 4 4 12 10 5 4 10 16 17 22 24 23 22 21 7 12 17 31 16 6 11 17 17 16 15 17
24 23 25 26 27 29 21 6 8 5 9 8 24 22 27 15 6 9 3 6 3 3 4 4 8 19 29 27 25 20 21 19 13 9 14 20 28 17 12 11 17 15 10 11 13
24 25 25 26 28 29 4 5 7 10 19 17 24 22 23 8 11 19 2 7 5 9 5 4 16 25 19 21 23 26 26 24 17 9 12 12 21 8 9 11 13 14 13 10 7
25 25 26 27 29 6 1 8 5 6 8 17 7 7 6 6 8 15 8 7 7 9 16 14 13 11 20 23 25 23 26 27 17 6 17 7 23 15 8 6 8 9 10 10 12
25 24 26 29 10 3 7 5 6 1 4 9 4 6 2 3 10 4 10 8 6 13 18 10 22 20 20 21 17 26 19 24 23 15 19 10 18 12 19 21 13 19 17 16 10
24 25 25 24 10 4 6 7 5 2 6 6 5 3 15 8 13 22 7 6 19 19 6 12 9 12 14 27 24 17 9 16 16 14 12 10 10 11 14 14 16 19 19 16 12
25 26 27 7 1 5 6 6 5 9 9 9 6 18 18 30 12 11 5 5 7 9 10 23 19 14 24 23 19 19 13 21 19 14 21 20 17 21 9 18 14 14 19 19 17
25 26 21 2 5 3 4 5 7 4 9 9 20 17 27 24 14 3 5 5 7 4 4 8 16 11 14 8 5 7 16 11 16 17 20 20 18 21 7 19 22 21 18 16 10
25 26 6 3 5 1 4 7 4 6 8 9 18 32 10 17 5 5 9 8 4 9 11 4 10 4 7 14 4 7 5 3 8 5 12 5 11 12 25 20 8 13 14 13 11
19 4 4 3 1 3 5 4 8 6 6 17 20 7 15 6 6 7 5 4 4 5 5 3 7 5 7 8 20 7 8 3 6 3 3 3 5 7 6 14 22 21 16 13 5
3 4 4 3 2 4 4 6 6 5 9 6 7 5 13 24 15 2 4 3 5 4 6 5 14 5 5 6 12 10 8 2 4 2 5 3 3 7 3 10 14 10 4 6 3
3 4 3 2 4 3 3 7 8 8 10 4 9 13 17 15 7 4 5 8 4 11 4 7 5 9 5 2 3 7 7 6 5 4 3 3 5 4 5 4 6 7 7 7 8
1 3 2 2 4 2 3 5 7 15 9 8 6 13 12 12 8 5 6 4 13 8 14 5 5 5 18 4 6 3 4 4 4 3 2 4 7 4 5 6 5 6 7 7 5
4 4 2 4 1 4 5 6 5 5 5 5 5 6 8 7 10 6 4 6 9 15 6 6 4 10 11 3 4 4 3 4 5 3 5 6 6 6 10 10 7 7 9 9 5
3 4 5 3 0 3 6 6 6 5 7 6 11 12 9 14 5 12 16 8 11 16 18 4 3 6 7 13 12 7 9 3 4 4 4 5 1 15 16 13 14 14 7 7 6
1 5 5 5 4 6 2 3 11 5 5 3 6 4 11 11 18 6 7 18 8 9 3 4 6 2 10 12 2 5 5 8 7 3 2 2 5 6 11 11 13 11 11 9 8
1 2 1 3 3 4 4 4 14 9 2 14 6 15 15 14 18 28 20 16 10 3 3 2 5 4 6 3 11 12 15 12 8 8 4 4 5 9 8 7 9 11 13 12 9
2 2 3 5 3 2 4 6 13 18 10 8 14 19 17 17 14 21 23 24 19 19 13 3 2 5 6 1 3 5 7 8 6 9 3 10 5 9 9 7 8 11 11 12 11
Wind_Direction
5 5 2 358 356 354 351 349 346 344 342 340 338 335 332 329 326 315 268 232 215 257 273 279 299 191 159 244 190 136 214 214 205 210 229 151 190 206 178 172 204 201 204 312 138
8 4 358 354 350 349 347 346 342 340 338 336 335 333 331 329 325 287 260 274 270 265 281 269 265 241 222 210 203 186 215 221 211 223 231 187 185 189 153 206 223 234 197 74 156
2 359 354 351 348 346 344 343 337 336 335 332 332 332 334 352 320 250 339 32 25 311 265 233 242 279 234 200 209 212 239 215 232 236 254 231 236 238 172 198 220 206 167 153 174
357 354 351 347 345 342 340 338 333 333 331 326 326 327 328 56 282 191 339 346 346 326 316 282 213 213 218 220 200 253 236 244 249 248 241 229 189 230 204 231 187 206 166 162 185
351 350 345 344 340 338 339 334 331 329 326 321 319 320 333 264 249 292 312 338 344 348 279 256 248 225 237 218 219 243 233 244 241 248 249 261 230 222 223 236 238 102 162 186 191
346 347 342 341 337 337 333 331 328 324 321 316 312 312 271 266 243 246 284 321 359 360 313 313 275 241 259 235 227 255 250 248 243 249 240 238 252 193 219 244 255 194 210 210 202
341 340 338 338 335 331 329 326 324 321 318 314 310 301 264 257 298 291 294 305 272 240 301 262 251 250 271 255 250 263 269 263 257 226 250 167 265 235 229 206 237 221 231 217 219
340 337 340 331 330 329 326 323 320 316 313 311 314 307 259 259 261 283 0 321 308 298 244 279 250 243 244 255 279 271 227 247 244 226 221 162 259 250 208 203 237 225 234 216 226
341 338 329 330 328 328 323 320 319 311 312 324 317 241 271 310 311 88 28 327 310 309 325 292 267 257 236 234 242 234 248 237 259 215 201 195 257 219 190 211 229 232 230 220 227
340 331 332 332 330 326 324 326 310 316 349 300 266 292 279 281 321 313 303 340 292 329 320 184 261 252 239 221 225 228 228 238 242 201 197 222 249 237 220 202 226 230 230 221 218
334 335 333 330 328 328 331 335 357 341 11 266 266 270 278 290 275 274 305 303 270 184 244 269 226 231 235 226 239 250 240 249 235 215 209 225 248 234 227 228 232 236 226 223 220
332 331 331 329 328 326 48 352 289 292 303 268 265 264 255 270 297 281 200 182 196 263 242 259 238 244 262 277 254 236 244 242 253 209 228 245 259 222 223 238 227 232 238 227 227
331 330 330 329 327 8 316 289 310 329 295 299 259 253 271 140 234 275 179 221 213 256 248 230 251 262 241 254 261 258 228 233 237 207 235 242 262 251 248 254 264 253 252 237 218
327 332 327 329 328 300 298 292 321 316 305 276 309 294 194 271 275 256 209 215 230 237 262 233 247 243 239 235 234 257 241 237 238 236 238 172 261 235 234 240 236 248 247 247 233
328 326 325 330 302 323 285 335 324 45 335 284 303 274 316 299 297 293 223 262 254 258 248 239 233 221 228 234 228 246 268 277 235 231 246 212 258 251 234 236 234 239 245 242 229
332 326 323 327 268 252 321 331 40 44 261 302 315 321 320 316 307 283 258 211 251 262 233 247 253 250 240 253 238 225 237 261 250 242 246 233 225 257 208 224 236 233 237 235 235
332 325 322 336 264 331 356 35 27 128 321 296 320 314 315 297 298 276 271 270 276 286 263 256 252 252 215 227 160 187 205 229 214 214 236 221 216 232 212 214 224 231 232 237 217
334 322 319 248 311 353 51 45 103 240 256 305 313 309 279 302 300 303 291 292 215 232 264 293 324 154 188 227 159 180 201 207 233 212 217 162 212 227 222 236 239 231 238 258 232
338 309 315 272 315 57 61 45 216 225 295 324 318 309 310 285 309 304 245 276 312 326 306 301 268 270 250 203 197 196 228 142 346 339 98 194 280 305 189 223 233 239 245 251 326
329 331 284 313 88 63 80 245 235 228 320 331 290 247 295 309 316 276 314 272 282 296 316 284 293 242 300 176 191 183 153 159 184 271 220 245 268 228 254 217 232 243 268 316 352
16 351 266 39 61 51 207 234 279 271 330 201 249 282 286 312 281 284 272 292 330 318 359 277 228 289 330 300 192 163 176 182 186 200 98 348 274 266 241 259 280 340 341 336 323
284 291 312 51 29 320 260 205 268 298 313 265 265 268 286 329 303 291 296 291 330 338 320 264 288 287 287 265 200 252 155 142 151 175 122 134 273 327 327 325 303 337 325 317 340
302 253 340 89 275 284 269 272 262 294 270 303 276 276 315 309 312 280 285 299 325 343 310 311 320 317 332 3 106 323 199 164 110 86 193 142 259 359 5 15 355 327 343 337 344
301 314 316 39 286 247 296 268 290 276 270 247 270 289 310 304 244 285 287 296 317 301 305 338 286 209 279 291 305 302 7 6 149 144 182 233 342 351 355 350 345 348 340 334 337
273 257 196 300 304 272 255 246 299 302 239 286 303 229 323 305 308 241 254 300 304 297 339 72 279 260 287 298 292 23 18 28 66 18 164 286 91 356 345 325 346 336 343 353 340
205 321 270 265 273 268 278 269 290 294 256 303 233 283 304 284 275 292 299 297 297 331 5 353 291 315 292 49 72 54 30 45 48 19 38 27 75 10 323 307 351 351 353 354 342
215 259 249 277 287 292 271 275 293 304 294 245 283 300 295 274 258 277 275 274 262 273 280 263 285 346 274 69 251 32 13 19 81 38 342 36 323 320 330 353 357 353 351 341 332